Regional Weather Roundup
Issued by NWS Pendleton, OR

Home | Current Version | Previous Version | Text Only | Print | Product List | Glossary On
Versions: 1 2 3 4 5 6 7 8 9 10 11 12 13 14 15 16 17 18 19 20 21 22 23 24 25 26 27 28 29 30 31 32 33 34 35 36 37 38 39 40 41 42 43 44 45 46 47 48 49 50
000
ASUS46 KPDT 192110
RWRPDT
PENDLETON REGIONAL WEATHER ROUNDUP
NATIONAL WEATHER SERVICE PENDLETON OREGON
200 PM PDT SUN MAY 19 2019

NOTE: FAIR INDICATES FEW OR NO CLOUDS BELOW 12,000 FEET WITH NO
SIGNIFICANT WEATHER AND/OR OBSTRUCTIONS TO VISIBILITY.

# INDICATES UNOFFICIAL STATION AND DATA

WAZ520-192210-
EAST SLOPES OF WASHINGTON CASCADES

CITY            SKY/WX      TMP DP  RH  WIND    PRES   REMARKS
#BULLFROG       N/A         64  42  45  E2      N/A
#ELK HTS DOT    N/A         61  61  100 NE1     N/A
#TROUT LAKE 1NE N/A         57  48  72  SE5     29.67S
#TROUT LAKE 1E  N/A         60  49  67  CALM    29.72S
$$

WAZ521-192210-
SIMCOE HIGHLANDS

CITY            SKY/WX      TMP DP  RH  WIND    PRES   REMARKS
#SATUS PASS DOT N/A         49  48  96  S3      N/A
#CENTERVILLE 1SWN/A         54  47  77  CALM    29.64F
#LYLE 6NE       N/A         53  50  89  CALM    29.70R
#PITT 4SE       N/A         51  48  89  CALM    29.71S
$$

WAZ026-192210-
KITTITAS VALLEY

CITY            SKY/WX      TMP DP  RH  WIND    PRES   REMARKS
ELLENSBURG AP   CLOUDY      65  44  46  W8      29.70F
#ELLENSBURG CWU N/A         64  44  48  W2      29.60F
#ELLENSBURG 3NE N/A         62  47  58  N1      27.80F
#ELLENSBURG 1E  N/A         64  45  50  N1      29.69F
#KITTITAS 3S    N/A         62  48  60  NE3     29.65F
#MANASTASH RDG  N/A         60  41  49  N10     N/A
#ROCKY CYN DOT  N/A         64  42  45  S3      N/A
#RYEGRASS DOT   N/A         60  37  42  NE14    N/A
#THORP 6N       N/A         63  45  52  CALM    29.68F
$$

WAZ027-192210-
YAKIMA VALLEY

CITY            SKY/WX      TMP DP  RH  WIND    PRES   REMARKS
YAKIMA AIRPORT  CLOUDY      66  42  42  N13     29.69F
YAKIMA-VAGABOND MOCLDY      67  41  39  NE14    29.67F
#MABTON         N/A         64  53  67  NW7     29.67F
#NACHES 2SW     N/A         62  47  58  E2      29.72F
#OUTLOOK DOT    N/A         65  46  50  W2      29.64F
#PARKER DOT     N/A         67  42  40  W1      29.68S
#TERRACE HTS    N/A         67  47  49  E1      29.62F
#TOPPENISH      N/A         65  47  52  CALM    29.59F
#I82 S UMTANUM RN/A         62  37  39  N12     N/A
#UNION GAP DOT  N/A         66  42  42  N3      29.68F
#ZILLAH DOT     N/A         65  45  48  W6      N/A
$$

WAZ028-192210-
LOWER COLUMBIA BASIN...WASHINGTON

CITY            SKY/WX      TMP DP  RH  WIND    PRES   REMARKS
PASCO           CLOUDY      76  46  34  N12     29.62F
RICHLAND AWOS   PTCLDY      74  45  35  N7      29.62F
#BASIN CITY 5SW N/A         71  51  49  N7      29.59F
#CONNELL 5N     N/A         70  46  42  NE8     29.62F
#CONNELL 5NW    N/A         69  40  35  N3      29.57F
#ELTOPIA 6NW    N/A         72  48  43  NE6     28.61F
#KENNEWICK 3S   N/A         70  51  51  N2      29.61F
#PROSSER DOT    N/A         70  44  39  N9      29.66F
#SAGEMOOR 2W    N/A         70  51  51  N5      29.47F
#TOUCHET 2S     N/A         69  56  63  NW5     29.58F
$$

WAZ029-192210-
FOOTHILLS OF THE BLUES...WASHINGTON

CITY            SKY/WX      TMP DP  RH  WIND    PRES   REMARKS
WALLA WALLA AP  MOCLDY      66  50  56  CALM    29.61F
#CLYDE 6NW      N/A         69  47  45  N9G26   29.57F
#DELANEY DOT    N/A         72  43  35  N6      29.62F
#LOWDEN 2SE     N/A         68  54  61  NW7     29.57F
#PLEASANT VIEW 1N/A         69  48  47  N7      29.61F
#PRESCOTT       N/A         71  50  47  CALM    29.57F
#WALLA WALLA 5E N/A         66  54  65  W2      N/A
$$

WAZ030-192210-
BLUE MOUNTAINS...WASHINGTON

CITY            SKY/WX      TMP DP  RH  WIND    PRES   REMARKS
#DIXIE 5SE      N/A         56  50  80  NW7     29.57F
$$

ORZ009-041-WAZ024-192210-
COLUMBIA RIVER GORGE

CITY            SKY/WX      TMP DP  RH  WIND    PRES   REMARKS
HOOD RIVER AP   CLOUDY      64  48  56  NW3     29.70F
THE DALLES AP   LGT RAIN    59  53  80  NW5     29.69R
#CELILO DOT     N/A         62  48  60  CALM    N/A
#LYLE           N/A         59  52  78  NE6     29.70R
#MARYHILL       N/A         60  53  78  N3      N/A
#RUFUS DOT      N/A         61  52  72  NW8     N/A

$$

ORZ510-192210-
NORTH CENTRAL OREGON

CITY            SKY/WX      TMP DP  RH  WIND    PRES   REMARKS
#ANTELOPE       N/A         48  45  89  CALM    29.53F
#COW CYN RST AREN/A         47  44  89  W6      N/A
#DUFUR          N/A         59  48  67  CALM    29.64F
#DUFUR 9E       N/A         52  46  80  NW7     29.73S
#GRASS VALLEY 1SN/A         52  49  89  NW5     29.87S
#KENT DOT       N/A         50  44  80  NW6     N/A
#SHANIKO 5WSW   N/A         45  44  96  NW8     N/A
#WAPANITIA AIRPON/A         53  47  80  CALM    29.70S
#WASCO 5NE      N/A         57  49  75  NW3     29.65F
$$

ORZ511-192210-
CENTRAL OREGON

CITY            SKY/WX      TMP DP  RH  WIND    PRES   REMARKS
BEND AIRPORT    LGT DRIZZLE 48  41  77  N7      29.71S
MADRAS AIRPORT  LGT RAIN    50  45  83  CALM    29.74S
PRINEVILLE AP   MOCLDY      48  45  89  NW10    29.71R FOG
REDMOND AIRPORT LGT RAIN    50  43  77  N12     29.71S
#ASHWOOD SCHOOL N/A         49  46  89  CALM    29.70S
#BEND-KIM LN    N/A         49  44  83  NE2     29.62R
#CULVER         N/A         48  43  83  CALM    29.32F
#PRINEVILLE     N/A         48  44  86  NW2     29.75R
#WARM SPRINGS   N/A         54  49  83  CALM    29.55S

$$


ORZ509-192210-
EAST SLOPES OF OREGON CASCADES

CITY            SKY/WX      TMP DP  RH  WIND    PRES   REMARKS
#BLUE BOX PASS  N/A         46  N/A N/A CALM    N/A
#CAMP SHERMAN   N/A         51  42  71  CALM    29.74R
#LA PINE 4NW    N/A         50  38  63  S1      30.10S
#LAVA BUTTE DOT N/A         45  37  73  CALM    N/A
#SISTERS ODOT   N/A         49  41  74  CALM    N/A
#TUMALO 3W      N/A         46  40  79  N3      29.55S
#WANOGA BUTTE D N/A         39  37  92  E7      N/A

$$

ORZ044-192210-
LOWER COLUMBIA BASIN...OREGON

CITY            SKY/WX      TMP DP  RH  WIND    PRES   REMARKS
HERMISTON       MOCLDY      69  45  42  VRB5    29.62F
#ECHO 8SW       N/A         66  56  70  CALM    29.65F
#I-84 EX 198 DOTN/A         63  46  54  E10     N/A
#IONE SCHOOL    N/A         59  45  60  NW2     29.65F
#UMATILLA       N/A         69  47  45  N3      29.54F
$$

ORZ507-192210-
NORTHERN FOOTHILLS OF THE BLUES

CITY            SKY/WX      TMP DP  RH  WIND    PRES   REMARKS
PENDLETON AIRPT MOCLDY      63  49  60  NW12    29.63F
#ADAMS 3WNW     N/A         62  51  67  N6      29.59F
#ATHENA         N/A         63  51  65  N1      29.62F
#CAYUSE         N/A         61  50  67  N7      29.59F
#HELIX SCHOOL   N/A         62  49  62  CALM    29.59F
#HELIX 3N       N/A         62  48  60  N14     29.67F
#HOLDMAN 5SE    N/A         64  49  58  CALM    29.64F
#HOLDMAN 6E     N/A         63  50  62  N8      29.40F
#M-FREEWATER 5SEN/A         64  54  70  CALM    29.63F
#PENDLETON DNTN N/A         65  45  48  W3      29.63S
#PDT AQUATIC CTRN/A         64  47  54  NW5     29.65F
#PDT SUNRIDGE   N/A         63  50  62  NW5     29.64F
#TUTUILLA       N/A         59  49  69  W2      29.68F
#UMAPINE 2E     N/A         67  54  63  W1      29.58F
#WESTON SCHOOL  N/A         60  45  58  E5      29.48F

$$

ORZ508-192210-
SOUTHERN FOOTHILLS OF THE BLUES

CITY            SKY/WX      TMP DP  RH  WIND    PRES   REMARKS
#AJAX           N/A         53  45  74  CALM    29.87F
#HEPPNER EOC    N/A         55  48  77  N6      29.57S
#HEPPNER 4NE    N/A         53  48  83  N7      29.62F
#LEXINGTON 2SE  N/A         59  51  75  N5      29.63F
#OLEX 4N        N/A         59  52  78  W3      29.68F
#RUGGS 5NE      N/A         51  48  89  VRB12   29.78F
#RUGGS 2SW      N/A         51  48  89  N7      29.65S

$$

ORZ502-503-192210-
BLUE MOUNTAINS

CITY            SKY/WX      TMP DP  RH  WIND    PRES   REMARKS
MEACHAM         MOCLDY      54  44  69  VRB6    29.65F
#BATTLE MTN DOT N/A         46  42  86  N5      N/A
#LADD CYN SMT   N/A         57  38  49  NW10    N/A
#N POWDER DOT   N/A         59  40  49  N16G24  N/A
#TOLLGATE       N/A         44  43  96  N2      29.75S
#TROY SCHOOL    N/A         69  49  49  CALM    29.39F
#WESTON 4E      N/A         58  51  77  CALM    29.56F
$$

ORZ505-192210-
JOHN DAY BASIN

CITY            SKY/WX      TMP DP  RH  WIND    PRES   REMARKS
JOHN DAY        LGT DRIZZLE 47  46  96  W9      29.65F
#DAYVILLE SCHOOLN/A         59  52  78  N6      29.73S
#MITCHELL 8NW   N/A         45  44  96  CALM    29.68S
#MONUMENT HS    N/A         51  47  86  CALM    29.62S
$$

ORZ506-192210-
OCHOCO AND JOHN DAY HIGHLANDS

CITY            SKY/WX      TMP DP  RH  WIND    PRES   REMARKS
#HORSE RIDGE DO N/A         44  39  82  N8      N/A
#PAULINA ODOT   N/A         44  N/A N/A W8      N/A
#PRAIRIE CITY   N/A         50  47  89  W2      29.77F
#SENECA 9NW     N/A         43  41  93  CALM    29.58F
$$

ORZ049-192210-
GRANDE RONDE VALLEY

CITY            SKY/WX      TMP DP  RH  WIND    PRES   REMARKS
LA GRANDE       PTCLDY      63  45  52  NW14    29.58F
#COVE SCHOOL    N/A         65  49  56  CALM    29.62F
#COVE 6NW       N/A         64  47  54  NW15    29.51F
#ELGIN 1E       N/A         68  43  40  N5      N/A
#IMBLER SCHOOL  N/A         63  43  48  N3      29.57F
#ISLAND CITY 4N N/A         58  53  83  CALM    29.76S
#LADD CYN DOT   N/A         62  43  50  NW8     N/A
#UNION 1S       N/A         61  46  58  W1      29.52F
$$

ORZ050-192210-
WALLOWA COUNTY

CITY            SKY/WX      TMP DP  RH  WIND    PRES   REMARKS
#ENTERPRISE HS  N/A         58  45  62  CALM    29.43F
#IMNAHA SCHOOL  N/A         67  47  49  NW6     29.58F
#IMNAHA 10S     N/A         64  49  58  NE5     29.59F
#JOSEPH 3N      N/A         58  39  49  NW2     29.68F
#LOSTINE        N/A         61  45  56  CALM    29.34F
#LOSTINE 3SE    N/A         58  44  60  SW6     29.68F
#MT HOWARD 8000 N/A         36  34  92  N5      29.70F
#PROMISE 1S     N/A         58  45  62  N8      29.65F
#WALLOWA LAKE   N/A         55  43  64  CALM    29.65F
#WALLOWA SCHOOL N/A         64  44  48  NE2     29.58F



$$


USA.gov is the U.S. government's official web portal to all federal, state and local government web resources and services.